TimeCDT,TemperatureF,Dew PointF,Humidity,Sea Level PressureIn,VisibilityMPH,Wind Direction,Wind SpeedMPH,Gust SpeedMPH,PrecipitationIn,Events,Conditions,WindDirDegrees,DateUTC
12:16 AM,48.2,46.4,93,29.80,10.0,NW,12.7,-,N/A,,Overcast,320,2013-10-07 05:16:00
12:36 AM,48.2,46.4,93,29.80,10.0,NW,9.2,-,N/A,,Overcast,310,2013-10-07 05:36:00
12:56 AM,48.2,46.4,93,29.81,10.0,NW,11.5,19.6,N/A,,Overcast,310,2013-10-07 05:56:00
1:16 AM,48.2,46.4,93,29.82,10.0,NW,8.1,12.7,N/A,,Mostly Cloudy,310,2013-10-07 06:16:00
1:36 AM,48.2,46.4,93,29.82,10.0,NW,8.1,-,N/A,,Mostly Cloudy,310,2013-10-07 06:36:00
1:56 AM,48.2,46.4,93,29.82,10.0,NW,4.6,-,N/A,,Mostly Cloudy,320,2013-10-07 06:56:00
2:16 AM,48.2,46.4,93,29.83,10.0,NNW,6.9,-,N/A,,Mostly Cloudy,330,2013-10-07 07:16:00
2:36 AM,48.2,46.4,93,29.82,10.0,NW,4.6,-,N/A,,Overcast,310,2013-10-07 07:36:00
2:57 AM,48.2,46.4,93,29.82,10.0,WNW,6.9,-,N/A,,Overcast,290,2013-10-07 07:57:00
3:16 AM,48.2,46.4,93,29.83,10.0,WNW,5.8,-,N/A,,Overcast,300,2013-10-07 08:16:00
3:37 AM,48.2,46.4,93,29.83,10.0,WNW,5.8,-,N/A,,Scattered Clouds,300,2013-10-07 08:37:00
3:56 AM,48.2,46.4,93,29.83,10.0,NW,5.8,-,N/A,,Clear,310,2013-10-07 08:56:00
4:16 AM,46.4,44.6,93,29.83,10.0,NW,5.8,-,N/A,,Clear,310,2013-10-07 09:16:00
4:37 AM,46.4,44.6,93,29.85,10.0,NW,5.8,-,N/A,,Clear,310,2013-10-07 09:37:00
4:56 AM,46.4,44.6,93,29.85,10.0,WNW,5.8,-,N/A,,Clear,300,2013-10-07 09:56:00
5:16 AM,46.4,44.6,93,29.85,10.0,NW,4.6,-,N/A,,Clear,310,2013-10-07 10:16:00
5:37 AM,42.8,42.8,100,29.85,10.0,NNW,3.5,-,N/A,,Clear,330,2013-10-07 10:37:00
5:56 AM,44.6,42.8,93,29.85,10.0,Calm,Calm,-,N/A,,Clear,0,2013-10-07 10:56:00
6:17 AM,42.8,41.0,93,29.86,10.0,Calm,Calm,-,N/A,,Scattered Clouds,0,2013-10-07 11:17:00
6:36 AM,42.8,41.0,93,29.86,10.0,Calm,Calm,-,N/A,,Scattered Clouds,0,2013-10-07 11:36:00
6:56 AM,42.8,42.8,100,29.87,10.0,NW,4.6,-,N/A,,Overcast,320,2013-10-07 11:56:00
7:17 AM,42.8,42.8,100,29.87,10.0,NNW,3.5,-,N/A,,Overcast,340,2013-10-07 12:17:00
7:36 AM,42.8,42.8,100,29.88,10.0,NNW,3.5,-,N/A,,Overcast,330,2013-10-07 12:36:00
7:56 AM,44.6,42.8,93,29.89,10.0,NW,3.5,-,N/A,,Mostly Cloudy,310,2013-10-07 12:56:00
8:17 AM,46.4,44.6,93,29.89,10.0,Calm,Calm,-,N/A,,Mostly Cloudy,0,2013-10-07 13:17:00
8:36 AM,48.2,46.4,93,29.90,10.0,Calm,Calm,-,N/A,,Mostly Cloudy,0,2013-10-07 13:36:00
8:56 AM,48.2,44.6,87,29.90,10.0,Calm,Calm,-,N/A,,Scattered Clouds,0,2013-10-07 13:56:00
9:16 AM,50.0,44.6,82,29.91,10.0,NW,5.8,-,N/A,,Clear,320,2013-10-07 14:16:00
9:36 AM,51.8,44.6,76,29.92,10.0,WNW,6.9,-,N/A,,Clear,300,2013-10-07 14:36:00
9:56 AM,51.8,44.6,76,29.92,10.0,WNW,4.6,-,N/A,,Clear,300,2013-10-07 14:56:00
10:17 AM,53.6,44.6,72,29.93,10.0,Calm,Calm,-,N/A,,Clear,0,2013-10-07 15:17:00
10:36 AM,53.6,44.6,72,29.94,10.0,NW,4.6,-,N/A,,Clear,320,2013-10-07 15:36:00
10:56 AM,55.4,46.4,72,29.94,10.0,NW,4.6,-,N/A,,Clear,310,2013-10-07 15:56:00
11:16 AM,55.4,46.4,72,29.95,10.0,NE,4.6,-,N/A,,Clear,40,2013-10-07 16:16:00
11:36 AM,55.4,46.4,72,29.95,10.0,Calm,Calm,-,N/A,,Clear,0,2013-10-07 16:36:00
11:57 AM,59.0,48.2,67,29.96,10.0,NE,4.6,-,N/A,,Clear,50,2013-10-07 16:57:00
12:16 PM,59.0,48.2,67,29.95,10.0,Calm,Calm,-,N/A,,Clear,0,2013-10-07 17:16:00
12:36 PM,60.8,48.2,63,29.95,7.0,NE,3.5,-,N/A,,Clear,50,2013-10-07 17:36:00
12:57 PM,60.8,48.2,63,29.95,3.0,Calm,Calm,-,N/A,,Haze,0,2013-10-07 17:57:00
1:16 PM,60.8,46.4,59,29.95,7.0,ENE,4.6,-,N/A,,Clear,70,2013-10-07 18:16:00
1:36 PM,60.8,46.4,59,29.94,2.5,East,3.5,-,N/A,,Haze,90,2013-10-07 18:36:00
1:57 PM,62.6,44.6,52,29.95,10.0,NNE,8.1,-,N/A,,Clear,20,2013-10-07 18:57:00
2:16 PM,64.4,44.6,49,29.95,10.0,North,3.5,-,N/A,,Clear,350,2013-10-07 19:16:00
2:36 PM,64.4,44.6,49,29.95,10.0,NNE,3.5,-,N/A,,Clear,20,2013-10-07 19:36:00
2:56 PM,66.2,42.8,43,29.96,7.0,North,6.9,-,N/A,,Clear,350,2013-10-07 19:56:00
3:17 PM,66.2,42.8,43,29.96,10.0,North,4.6,-,N/A,,Clear,360,2013-10-07 20:17:00
3:36 PM,66.2,41.0,40,29.96,10.0,NNE,4.6,-,N/A,,Clear,20,2013-10-07 20:36:00
3:56 PM,68.0,42.8,40,29.96,10.0,NNW,6.9,-,N/A,,Clear,330,2013-10-07 20:56:00
4:16 PM,66.2,35.6,32,29.97,10.0,NW,10.4,-,N/A,,Clear,320,2013-10-07 21:16:00
4:36 PM,66.2,37.4,35,29.97,10.0,North,3.5,16.1,N/A,,Clear,350,2013-10-07 21:36:00
4:56 PM,62.6,37.4,39,29.97,10.0,Calm,Calm,-,N/A,,Clear,0,2013-10-07 21:56:00
5:17 PM,62.6,41.0,45,29.97,10.0,NNW,3.5,-,N/A,,Clear,330,2013-10-07 22:17:00
5:36 PM,62.6,39.2,42,29.97,10.0,Calm,Calm,-,N/A,,Clear,0,2013-10-07 22:36:00
5:56 PM,62.6,41.0,45,29.98,10.0,Calm,Calm,-,N/A,,Clear,0,2013-10-07 22:56:00
6:17 PM,59.0,46.4,63,29.98,10.0,Calm,Calm,-,N/A,,Clear,0,2013-10-07 23:17:00
6:36 PM,55.4,46.4,72,29.98,10.0,Calm,Calm,-,N/A,,Clear,0,2013-10-07 23:36:00
6:56 PM,55.4,44.6,67,29.99,10.0,Calm,Calm,-,N/A,,Clear,0,2013-10-07 23:56:00
7:17 PM,53.6,50.0,88,29.99,10.0,Calm,Calm,-,N/A,,Clear,0,2013-10-08 00:17:00
7:36 PM,51.8,46.4,82,29.99,10.0,Calm,Calm,-,N/A,,Clear,0,2013-10-08 00:36:00
7:56 PM,51.8,50.0,94,30.00,10.0,Calm,Calm,-,N/A,,Clear,0,2013-10-08 00:56:00
8:17 PM,50.0,48.2,94,30.01,10.0,Calm,Calm,-,N/A,,Clear,0,2013-10-08 01:17:00
8:36 PM,48.2,46.4,93,30.02,10.0,Calm,Calm,-,N/A,,Clear,0,2013-10-08 01:36:00
8:56 PM,48.2,46.4,93,30.02,10.0,Calm,Calm,-,N/A,,Clear,0,2013-10-08 01:56:00
9:17 PM,48.2,46.4,93,30.03,10.0,Calm,Calm,-,N/A,,Clear,0,2013-10-08 02:17:00
9:36 PM,48.2,46.4,93,30.03,10.0,Calm,Calm,-,N/A,,Clear,0,2013-10-08 02:36:00
9:56 PM,48.2,46.4,93,30.03,10.0,Calm,Calm,-,N/A,,Clear,0,2013-10-08 02:56:00
10:16 PM,48.2,46.4,93,30.04,10.0,Calm,Calm,-,N/A,,Clear,0,2013-10-08 03:16:00
10:36 PM,46.4,44.6,93,30.04,10.0,Calm,Calm,-,N/A,,Clear,0,2013-10-08 03:36:00
10:56 PM,46.4,44.6,93,30.04,10.0,Calm,Calm,-,N/A,,Clear,0,2013-10-08 03:56:00
11:16 PM,46.4,44.6,93,30.04,10.0,Calm,Calm,-,N/A,,Clear,0,2013-10-08 04:16:00
11:37 PM,46.4,44.6,93,30.04,10.0,Calm,Calm,-,N/A,,Clear,0,2013-10-08 04:37:00
11:56 PM,46.4,44.6,93,30.04,10.0,Calm,Calm,-,N/A,,Clear,0,2013-10-08 04:56:00